Regional Weather Roundup
Issued by NWS Wakefield, VA

Home | Current Version | Previous Version | Graphics & Text | Print | Product List | Glossary On
Versions: 1 2 3 4 5 6 7 8 9 10 11 12 13 14 15 16 17 18 19 20 21 22 23 24 25 26 27 28 29 30 31 32 33 34 35 36 37 38 39 40 41 42 43 44 45 46 47 48 49 50
000
ASUS41 KAKQ 011315
RWRAKQ

REGIONAL WEATHER ROUNDUP
NATIONAL WEATHER SERVICE WAKEFIELD VA
900 AM EDT SAT AUG 01 2015

Note: "fair" indicates few or no clouds below 12,000 feet with no
significant weather and/or obstructions to visibility. * = Denotes
station may not report precipitation (e.g., rain,snow,etc.),
thunder or fog.

VAZ042-051-052>054-056-011400-
NORTHERN VIRGINIA

CITY           SKY/WX    TMP DP  RH WIND       PRES   REMARKS
WASH NATIONAL  PTSUNNY   82  65  56 S5        29.90R
DULLES         MOSUNNY   76  65  68 CALM      29.90R
FORT BELVOIR   SUNNY     77  69  76 CALM      29.89R
QUANTICO       NOT AVBL
FREDERICKSBRG* SUNNY     78  68  71 CALM      29.89S
STAFFORD*      SUNNY     74  66  76 CALM      29.94S
WARRENTON      SUNNY     75  68  77 SW5       29.90S
CULPEPER*      SUNNY     74  66  75 CALM      29.91S
MANASSAS*      MOSUNNY   73  68  83 CALM      29.90R
LEESBURG*      MOSUNNY   77  68  73 S5        29.91S
WINCHESTER     MOSUNNY   77  63  61 SW7       29.92S
FRONT ROYAL*   FAIR      72  63  73 S6        29.91S
LURAY*         FAIR      73  64  73 SW6       29.94S
$$

VAZ048-049-060>072-079>083-011400-
CENTRAL AND SOUTH CENTRAL VIRGINIA

CITY           SKY/WX    TMP DP  RH WIND       PRES   REMARKS
RICHMOND       MOSUNNY   78  65  63 SW3       29.92R
CHESTERFIELD*  FAIR      79  57  47 CALM      29.93S
PETERSBURG*    SUNNY     77  71  82 CALM      29.93S
HANOVER        SUNNY     77  65  66 SW3       29.93S
TAPPAHANNOCK*  SUNNY     76  64  66 CALM      29.92S
QUINTON*       FAIR      74  67  77 CALM      29.91S
CHARLOTTSVILLE MOSUNNY   77  65  66 S5        29.92R
GORDONSVILLE*  FAIR      75  66  73 SW5       29.92R
ORANGE*        SUNNY     77  66  69 CALM      29.93R
LOUISA*        SUNNY     77  66  69 SW3       29.91S
BUMPASS*       FAIR      74  66  75 CALM      29.92R
FARMVILLE*     SUNNY     76  64  65 SW5       29.93S
CREWE*         FAIR     N/A N/A N/A CALM      29.94R
FORT PICKETT*  FAIR      76  64  66 W5        29.94S
CHASE CITY*    FAIR      77  68  74 CALM      29.95S
CLARKSVILLE*   FAIR      73  64  73 CALM      29.95S
SOUTH HILL*    SUNNY     73  67  84 CALM      30.00S
LAWRENCEVILLE* FAIR      75  64  69 W3        29.94S
EMPORIA*       SUNNY     77  64  65 CALM      29.94S
$$

VAZ088>098-011400-
SOUTHEAST VIRGINIA

CITY           SKY/WX    TMP DP  RH WIND       PRES   REMARKS
NORFOLK        SUNNY     81  69  67 SW8       29.92S
VIRGINIA BEACH MOSUNNY   83  71  67 SW9       29.91S
NORFOLK NAVAL  MOSUNNY   80  71  74 W5        29.93F
WEST POINT*    MOSUNNY   80  65  61 W3        29.93R
SALUDA*        FAIR      77  68  73 W3        29.90S
NEWPORT NEWS   SUNNY     80  70  71 SW7       29.92S
LANGLEY AFB    SUNNY     80  72  76 SW10      29.92
FORT EUSTIS    SUNNY     80  66  61 VRB5      29.90S
WILLIAMSBURG*  SUNNY     81  70  69 W5        29.93S
HR EXEC AP*    FAIR      79  72  78 SW5       29.94F
FRANKLIN*      SUNNY     78  68  71 W3        29.93S
WAKEFIELD      SUNNY     79  67  66 CALM      29.92F
$$

VAZ020-022-025-037-045-011400-
WEST CENTRAL AND SOUTHWEST VIRGINIA

CITY           SKY/WX    TMP DP  RH WIND       PRES   REMARKS
STAUNTON*      SUNNY     76  64  66 SW6       29.98R
WAYNESBORO*    FAIR      74  61  65 SW5       29.98R
HOT SPRINGS VA SUNNY     65  57  76 W12       30.07S
LYNCHBURG      SUNNY     73  64  73 S7        29.98R
DANVILLE       SUNNY     73  64  73 W6        29.96S
SOUTH BOSTON*  FAIR      73  65  77 CALM      29.96S
MARTINSVILLE   SUNNY     73  62  69 CALM      30.01S
ROANOKE        SUNNY     75  59  57 SW6       30.00R
BLACKSBURG     SUNNY     69  63  80 W5        30.08R
DUBLIN*          N/A     73  63  70 W5        30.07R
MARION*        SUNNY     66  60  79 SW8       30.12R
HILLSVILLE*    SUNNY     66  60  78 CALM      30.08R
RICHLANDS*     FAIR      67  61  80 CALM      30.10R
WISE*          SUNNY     72  55  56 W3        30.12R
ABINGDON*      SUNNY     69  60  72 W3        30.09R
$$

MDZ021>025-VAZ099-100-011400-
SOUTHERN MARYLAND AND THE DELMARVA PENINSULA

CITY           SKY/WX    TMP DP  RH WIND       PRES   REMARKS
PATUXENT RIVER MOSUNNY   77  67  71 SW8       29.89R
BAY BRIDGE APT   N/A     79  63  57 W5        29.88S
LEONARDTOWN    SUNNY     77  66  69 CALM      29.91S
DOVER          SUNNY     80  67  63 W10       29.86R
GEORGETOWN     SUNNY     80  67  64 SW10      29.89R
EASTON         SUNNY     82  72  69 W5        29.92R
CAMBRIDGE      SUNNY     79  68  69 SW6       29.88S
SALISBURY      SUNNY     80  68  66 W8        29.89R
OCEAN CITY     SUNNY     82  66  58 SW9       29.89R
WALLOPS ISLAND SUNNY     81  74  79 W8        29.90S
ACCOMACK*      SUNNY     81  79  94 SW7       29.91S
$$

NCZ012>017-030>032-011400-
NORTH CENTRAL AND EASTERN NORTH CAROLINA

CITY           SKY/WX    TMP DP  RH WIND       PRES   REMARKS
ROANOKE RAPIDS FAIR      79  64  61 CALM      29.94S
RALEIGH        MOSUNNY   77  64  64 CALM      29.96S
ELIZABETH CITY SUNNY     80  73  79 W5        29.93R
AHOSKIE*       SUNNY     78  72  80 CALM      29.93S
EDENTON*         N/A     81  71  72 SW5       29.93S
CURRITUCK*     SUNNY     80  69  68 SW3       29.94R
KILL DEVIL HLS SUNNY     85  69  58 SE5       29.91F
MANTEO         SUNNY     83  68  59 S7        29.92S
CAPE HATTERAS  LGT RAIN  79  71  76 SE14      29.93S
TARBORO*         N/A     78  72  81 CALM      29.94S
GOLDSBORO      MOSUNNY   76  73  92 E5        29.92S
WASHINGTON     SUNNY     77  74  90 NW5       29.93F
GREENVILLE     SUNNY     77  73  88 CALM      29.95F FOG
NEW BERN       PTSUNNY   79  73  82 CALM      29.93S
WILMINGTON     MOSUNNY   78  74  87 N5        29.92R
$$

VAZ048-011400-
ELSEWHERE

CITY           SKY/WX    TMP DP  RH WIND       PRES   REMARKS
HARRISBURG PA  MOSUNNY   78  63  59 CALM      29.86R
BALTIMORE      PTSUNNY   77  64  64 W8        29.88R
ANNAPOLIS      SUNNY     80  62  54 W7        29.87R
ANDREWS AFB    SUNNY     81  64  56 W7        29.89R
PHILADELPHIA   MOSUNNY   80  61  52 W13       29.86R
HENDERSON NC   SUNNY     78  59  52 NW5       29.96S
GREENSBORO     MOSUNNY   79  59  50 CALM      29.98S
ROCKY MOUNT    SUNNY     81  69  67 NW5       29.94S
$$

VAZ100-011400-
MARINE

STATION/POSITION TIME  TEMP    WIND        PRES    WAVE   SWELL
                       AIR SEA DIR/SP/G            HT/PER HT/PER
                 (UTC) (F)     (DEG/KT/KT) (MB)    (FT/S) (FT/S)
BRANDYWINE LGT   1200   76 76  250/ 12/ 13 1011.3R
CAPE MAY NJ      1200   76 74  250/  9/ 10 1010.9R
LEWES DE         1200   76 72  220/  7/ 11 1011.3R
15NM E FENWICK I 1250   78 79  230/ 12/ 14 1012.1R   3/ 8   2/ 8
OCEAN-CITY-INLET 1200   77 75  270/  6/  9 1011.1R
WACHAPREAGUE VA  1200   80 81  240/  3/  6 1012.7R
GOOSES REEF MD   1300   79 81  230/  8/  8 1013.1R
COVE POINT MD    1200   76     190/  5/  6 1012.4R
SOLOMONS ISLAND  1200      83                N/A
BISHOPS HEAD MD  1200   79 79  250/ 10/ 12 1011.2R
PINEY POINT MD   1200          250/  4/  6   N/A
POTOMAC MD       1300   78 82  260/  6/ 10 1011.2R   1/ 2
CAMBRIDGE MD     1200   76 84  150/  4/  7 1010.8R
LEWISETTA VA     1200   76 83  250/  5/  7 1012.0R
RAPPAHANNOCK LGT 1200          230/ 13/ 15 1013.1R
STINGRAY PT      1300   80 83  240/ 10/ 12 1012.7R   1/ 2
YORK RVR RNG VA  1200   78     260/ 12/ 14 1012.1R
YORKTOWN VA      1200   77 83  230/  9/ 12 1012.4R
JAMESTOWN VA     1300   78 85  290/  4/  4   N/A
DOMINION TERM VA 1200   77     250/  5/  7 1013.0R
KIPTOPEKE VA     1200      81  230/  9/ 11   N/A
CHES BAY BRIDGE  1200   78 80  220/ 11/ 13 1012.6R
CAPE HENRY VA    1200   78     220/  6/ 10   N/A
CHESAPEAKE LGHT  1200   80     250/  9/ 10 1013.9R
WILLOUBY STN VA  1200   77     240/ 10/ 11 1013.9R
CAPE HENRY BUOY  1228      80                N/A     2/ 8
1ST LANDING BUOY 1300      80              1012.7S   1/ 3
CAPE CHARLES BUO 1226      80                N/A     2/ 8   2/ 8
OFFSHORE WE BUOY 1211      81                N/A     3/ 8   3/ 8
64NM E OF VA BCH 1250   81 81  200/  8/  8 1013.0R   3/ 8   3/ 8
DUCK PIER NC     1200   80 76  180/  3/  4 1012.4R
44100 DUCK FRF   1224      80                N/A     2/ 8   2/13
44056 DUCK FRF   1211      77                N/A     2/ 8
OREGON INLET NC  1200   81 80  140/  4/  6 1012.9F
HATTERAS NC      1200   79 80  120/  9/ 13 1012.9R
DIAMOND SHLS NC  1250   75 85  180/  4/  6 1014.2R   4/ 8   3/ 8
CAPE LOOKOUT NC  1300   77     180/  5/  5 1012.8F
$$


USA.gov is the U.S. government's official web portal to all federal, state and local government web resources and services.